Newport, RI

8:29 AM EDT on June 23, 2017 (GMT -0400)
Newport State

Weather History for KUUU - December, 2013

Change the Weather History Date:

Tuesday, December 31, 2013

  Actual Average Record
Temperature  
Mean Temperature 22 °F -  
Max Temperature 27 °F 40 °F 53 °F (1990)
Min Temperature 17 °F 23 °F -4 °F (1962)
Degree Days  
Heating Degree Days 43    
Moisture  
Dew Point 10 °F    
Average Humidity 59    
Maximum Humidity 72    
Minimum Humidity 44    
Precipitation  
Precipitation 0.00 in - - ()
Sea Level Pressure  
Sea Level Pressure 30.12 in    
Wind  
Wind Speed 7 mph (NNW)    
Max Wind Speed 14 mph    
Max Gust Speed 22 mph    
Visibility 10 miles    
Events      
Averages and records for this station are not official NWS values.
T = Trace of Precipitation, MM = Missing Value Source: NWS Daily Summary

Daily Weather History Graph

Daily Weather History Graph

Search for Another Location

Airport or City:

Trip Planner

Search our weather history database for the weather conditions in past years. The results will help you decide how hot, cold, wet, or windy it might be!

Date:

Astronomy

Dec. 31, 2013 Rise Set
Actual Time 7:11 AM EST 4:25 PM EST
Civil Twilight 6:40 AM EST 4:56 PM EST
Nautical Twilight 6:05 AM EST 5:31 PM EST
Astronomical Twilight 5:31 AM EST 6:04 PM EST
Moon 6:00 AM EST (12/31) 3:58 PM EST (12/31)
Length of Visible Light 10h 16m
Length of Day
9h 13m
Waning Crescent, 1% of the Moon is Illuminated
Dec 31
Waning Crescent
Jan 1
New
Jan 7
First Quarter
Jan 15
Full
Jan 24
Last Quarter

Hourly Weather History & Observations

Time (EST) Temp. Windchill Dew Point Humidity Pressure Visibility Wind Dir Wind Speed Gust Speed Precip Events Conditions
12:53 AM 19.9 °F 11.1 °F 10.0 °F 65% 30.13 in 10.0 mi North 6.9 mph - N/A   Clear
1:53 AM 21.0 °F 12.4 °F 10.0 °F 63% 30.15 in 10.0 mi North 6.9 mph - N/A   Mostly Cloudy
2:53 AM 19.9 °F 10.1 °F 8.1 °F 60% 30.14 in 10.0 mi North 8.1 mph - N/A   Overcast
3:53 AM 19.9 °F 9.3 °F 10.0 °F 65% 30.13 in 10.0 mi North 9.2 mph - N/A   Overcast
4:53 AM 19.0 °F 8.2 °F 10.0 °F 68% 30.12 in 10.0 mi North 9.2 mph - N/A   Overcast
5:03 AM 19.0 °F 9.0 °F 9.0 °F 65% 30.12 in 10.0 mi North 8.1 mph - N/A   Overcast
5:53 AM 19.0 °F 9.0 °F 9.0 °F 65% 30.13 in 10.0 mi North 8.1 mph - N/A   Overcast
6:22 AM 18.0 °F 6.9 °F 6.1 °F 60% 30.13 in 10.0 mi North 9.2 mph - N/A   Overcast
6:53 AM 17.1 °F 6.6 °F 6.1 °F 62% 30.14 in 10.0 mi North 8.1 mph - N/A   Overcast
7:53 AM 17.1 °F 8.7 °F 3.9 °F 56% 30.13 in 10.0 mi North 5.8 mph - N/A   Clear
8:53 AM 19.9 °F 8.6 °F 6.1 °F 55% 30.14 in 10.0 mi NW 10.4 mph - N/A   Clear
9:53 AM 21.0 °F 11.4 °F 6.1 °F 53% 30.13 in 10.0 mi North 8.1 mph - N/A   Mostly Cloudy
10:53 AM 21.0 °F - 9.0 °F 60% 30.10 in 10.0 mi Calm Calm - N/A   Partly Cloudy
11:53 AM 24.1 °F 17.0 °F 10.0 °F 55% 30.07 in 10.0 mi WNW 5.8 mph - N/A   Clear
12:53 PM 26.1 °F 19.4 °F 10.0 °F 51% 30.06 in 10.0 mi Variable 5.8 mph - N/A   Clear
1:53 PM 26.1 °F 16.2 °F 8.1 °F 47% 30.05 in 10.0 mi WNW 10.4 mph - N/A   Clear
2:53 PM 27.0 °F 20.5 °F 8.1 °F 45% 30.05 in 10.0 mi Variable 5.8 mph - N/A   Clear
3:53 PM 26.1 °F 19.4 °F 7.0 °F 44% 30.07 in 10.0 mi Variable 5.8 mph - N/A   Overcast
4:53 PM 25.0 °F 20.7 °F 9.0 °F 51% 30.10 in 10.0 mi Variable 3.5 mph - N/A   Clear
5:53 PM 25.0 °F 17.1 °F 12.0 °F 58% 30.11 in 10.0 mi Variable 6.9 mph - N/A   Clear
6:53 PM 24.1 °F 19.7 °F 12.9 °F 62% 30.11 in 10.0 mi WNW 3.5 mph - N/A   Clear
7:53 PM 25.0 °F 20.7 °F 14.0 °F 63% 30.14 in 10.0 mi Variable 3.5 mph - N/A   Clear
8:53 PM 25.0 °F 17.1 °F 16.0 °F 69% 30.15 in 10.0 mi West 6.9 mph - N/A   Clear
9:53 PM 25.0 °F 15.5 °F 17.1 °F 72% 30.17 in 10.0 mi West 9.2 mph - N/A   Partly Cloudy
10:53 PM 25.0 °F 15.5 °F 17.1 °F 72% 30.19 in 10.0 mi WNW 9.2 mph - N/A   Clear
11:53 PM 25.0 °F 13.1 °F 12.0 °F 58% 30.21 in 10.0 mi WNW 13.8 mph 21.9 mph N/A   Clear